Regional Weather Roundup
Issued by NWS

Home | Current Version | Previous Version | Graphics & Text | Print | Product List | Glossary On
Versions: 1 2 3 4 5 6 7 8 9 10 11 12 13 14 15 16 17 18 19 20 21 22 23 24 25 26 27 28 29 30 31 32 33 34 35 36 37 38 39 40 41 42 43 44 45 46 47 48 49 50
000
ASUS43 KMKX 060921
RWRWI

WISCONSIN REGIONAL WEATHER ROUNDUP
NATIONAL WEATHER SERVICE MILWAUKEE/SULLIVAN WI
400 AM CDT MON JUL 06 2015

NOTE: "FAIR" INDICATES FEW OR NO CLOUDS BELOW 12,000 FEET WITH NO
SIGNIFICANT WEATHER AND/OR OBSTRUCTIONS TO VISIBILITY.

WIZ001-002-006>008-014>016-023>028-061000-
NORTHWEST WISCONSIN

CITY           SKY/WX    TMP DP  RH WIND       PRES   REMARKS
SUPERIOR ARPT  CLOUDY    65  65 100 CALM      29.80F
ASHLAND        CLOUDY    67  67 100 W6        29.81R
HAYWARD        LGT RAIN  67  65  93 S5        29.84F
SIREN          RAIN      67  66  96 S12       29.81F
CUMBERLAND     RAIN      64  63  94 E5        29.86F
RICE LAKE      RAIN      67  65  94 N5        29.87F
CHETEK         RAIN      69  68  97 CALM      29.86F
LADYSMITH      LGT RAIN  69  67  94 CALM      29.89F
EAU CLAIRE     RAIN      69  66  90 NE8       29.84F FOG
MENOMONIE      TSTM      70  69  96 N5        29.85R VSB 3/4
NEW RICHMOND   HVY RAIN  68  67  98 NE8       29.85F
OSCEOLA        RAIN      68  68 100 E18       29.85F
$$

WIZ003>005-009-010-017-018-061000-
NORTH CENTRAL WISCONSIN

CITY           SKY/WX    TMP DP  RH WIND       PRES   REMARKS
MANITOWISH WTR CLOUDY    68  65  90 S8        29.87F
ARBOR VITAE    CLOUDY    69  65  86 SW8       29.89F
WOODRUFF       CLOUDY    69  65  86 SW8       29.89F
RHINELANDER    CLOUDY    69  63  81 SW10      29.91S
EAGLE RIVER    CLOUDY    70  63  78 SW8       29.90R
LAND O LAKES   CLOUDY    70  64  79 SW7       29.90R
PHILLIPS       RAIN      67  66  96 CALM      29.89S
TOMAHAWK       CLOUDY    66  63  89 CALM      29.91S
MEDFORD        CLOUDY    67  64  90 CALM      29.90S
MERRILL        CLOUDY    69  65  88 S5        29.91S
$$

WIZ029-030-035-036-043>047-061000-
CENTRAL WISCONSIN

CITY           SKY/WX    TMP DP  RH WIND       PRES   REMARKS
WAUSAU         CLOUDY    67  63  87 SE3       29.90R
MOSINEE        CLOUDY    64  64 100 S6        29.92R FOG
MARSHFIELD     CLOUDY    68  62  81 S8        29.90R
STEVENS POINT  CLOUDY    66  62  87 S7        29.91R
WAUPACA        CLOUDY    67  66  94 S5        29.90F
WAUTOMA        CLOUDY    68  66  93 S7        29.91F
WISC RAPIDS    CLOUDY    68  63  84 S5        29.91R
CAMP DOUGLAS   CLOUDY    70  70 100 S8        29.88R
$$

WIZ011>013-019>022-031-037>040-048>050-061000-
NORTHEAST WISCONSIN

CITY           SKY/WX    TMP DP  RH WIND       PRES   REMARKS
ANTIGO         CLOUDY    61  61  99 S5        29.93R FOG
SHAWANO        CLOUDY    69  64  82 S3        29.90F
OCONTO         PTCLDY    67  67 100 S3        29.89F
STURGEON BAY   PTCLDY    66  59  77 S8        29.94F
GREEN BAY      MOCLDY    66  62  87 S9        29.91F FOG
MANITOWOC      PTCLDY    63  60  90 MISG      29.94F FOG
APPLETON       MOCLDY    66  61  82 S9        29.92F
CLINTONVILLE   CLOUDY    66  63  88 S5        29.90F
OSHKOSH        MOCLDY    66  62  87 S10       29.92F
$$

WIZ032>034-041-042-053>061-061000-
SOUTHWEST WISCONSIN

CITY           SKY/WX    TMP DP  RH WIND       PRES   REMARKS
LA CROSSE      CLOUDY    74  67  78 S15G21    29.84S
SPARTA         CLOUDY    71  63  76 S7        29.88S
VIROQUA        CLOUDY    69  66  90 S10G16    29.90S
BOSCOBEL       CLOUDY    72  65  78 SW6       29.89F HAZE
PRAIRIE DU CHI CLOUDY    73  64  75 SE5       29.87F
PLATTEVILLE    CLOUDY    69  66  91 S10       29.93S
$$

WIZ056-057-062-063-064-067-068-061000-
SOUTH CENTRAL WISCONSIN

CITY           SKY/WX    TMP DP  RH WIND       PRES   REMARKS
REEDSBURG      CLOUDY    69  65  85 S9        29.90S
BARABOO/DELLS  CLOUDY    68  62  80 S9        29.91F
LONE ROCK      CLOUDY    72  64  76 VRB7      29.91F
MINERAL POINT  CLOUDY    68  64  88 S8        29.93F FOG
MADISON        MOCLDY    69  63  81 MISG      29.92F
MIDDLETON      MOCLDY    70  63  78 SW8G16    29.93F
WATERTOWN      PTCLDY    64  64 100 S5        29.94F
MONROE         MOCLDY    64  63  94 S9        29.94F
JANESVILLE     PTCLDY    66  64  94 S5        29.95F
$$

WIZ051-052-058>065-066-070>072-061000-
SOUTHEAST WISCONSIN

CITY           SKY/WX    TMP DP  RH WIND       PRES   REMARKS
MILWAUKEE      PTCLDY    66  60  81 S6        29.98F
WAUKESHA       CLEAR     63  59  88 S5        29.98F
MILWAUKEE/TIMM CLEAR     64  59  82 S6        29.98F
RACINE         PTCLDY    66  60  81 S7        29.99F
BURLINGTON     CLEAR     56  55  97 CALM      29.97F FOG
KENOSHA        CLEAR     63  59  87 S7        29.98F FOG
FOND DU LAC    PTCLDY    67  63  87 SW7       29.94F
SHEBOYGAN      CLEAR     62  59  90 SE5       29.95F FOG
WEST BEND      PTCLDY    59  55  88 CALM      29.96F FOG
JUNEAU         PTCLDY    64  61  92 SE8       29.95F FOG
$$

LSZ147-162-061000-
LAKE SUPERIOR

STATION/POSITION TIME  TEMP    WIND        PRES    WAVE
                       AIR SEA DIR/SP/G            HT/PER
                 (UTC) (F)     (DEG/KT/KT) (MB)    (FT/S)
W MID LAKE BUOY  0850   51 39  210/  6/  6 1009.2R   1/ 3
DEVILS ISLAND    0900   63     250/ 14/ 16 1009.1R
PORT WING        0801   66     260/  3/  9 1009.8F
SAXON HARBOR     0840   69      CALM  /  7 1008.5F
$$

LMZ867-665-643>646-061000-
LAKE MICHIGAN

STATION/POSITION TIME  TEMP    WIND        PRES    WAVE
                       AIR SEA DIR/SP/G            HT/PER
                 (UTC) (F)     (DEG/KT/KT) (MB)    (FT/S)
CHAMBERS ISLAND  0800   69     160/  5/ 11 1013.5F
N MID LAKE BUOY  0850   57 54  200/ 16/ 17 1013.4F   2/ 4
NORTHPORT PIER   0800   66     150/  4/  8 1013.5F
SISTER BAY       0844   67     160/ 12/ 13   N/A
ALGOMA LAKESHORE 0841          210/  8/ 10   N/A
KEWAUNEE LAKESHO 0800   62     190/  7/  8 1014.2F
SHEBOYGAN LAKESH 0900   63     170/ 10/ 10 1014.3F
PORT WASHINGTON  0800   62     190/  4/ 11 1015.9F
ATWATER BUOY     0900   63 59  160/  6/  8 1016.0F
MILWAUKEE LAKESH 0900   66     170/  4/  5   N/A
KENOSHA   LAKESH 0900   66     170/  6/  7 1014.9F
$$

TC  - TEMPERATURE IN CELSIUS
VSB - VISIBILITY IN STATUTE MILES
WCI - WIND CHILL INDEX
HX  - HEAT INDEX



USA.gov is the U.S. government's official web portal to all federal, state and local government web resources and services.